MET'MAP v2.0
soon released !

Expected late october,
this new version will be
more efficient, smarter,
and hosted on a brand new
server x3 powerfull...
...and still free !


Not compatible ?
Try the mobile version !

LOG IN : | Subscribe | Disclaimer | Who is Orbifly ? |
ICAO code :

TAF - LFPT Pontoise - 25 Feb 2020 14:12 UTC
Data Sources :     NOAA   


- Airport Elevation : 325 ft
- IATA code : POX
- No reported NOTAMs.


LFPT - Pontoise

Latest METAR recorded : 2020/02/25 13:00 LFPT 251300Z AUTO 27009KT 220V300 9999 FEW014/// SCT024/// BKN056/// ///CB 07/04 Q1005
NO TAF
ATIS : +33 1 30 30 52 08


MET'MAP, your aeronautical weather chart ! - Copyright ORBIFLY December 2007

Programming & Development : Alexandra Zaïnal
Co-Developer : Marc-Olivier Méhu
Technical & hardware support : Manuel Goepfert
Concept & Financing : Baudouin d'Aumeries